| time (UTC) | temp F | wind direction | speed MPH | gust MPH | rain 1hr in | rain 24hr in | rain mn in | humidity % | barometer mb |
| 20260906205727 | 91 | 140 | 18.0 | 25.0 | 0.00 | 0.00 | 0.00 | 41 | 1014.7 |
| 20260906205227 | 91 | 135 | 16.0 | 25.0 | 0.00 | 0.00 | 0.00 | 40 | 1014.8 |
| 20260906204744 | 91 | 172 | 9.0 | 26.0 | 0.00 | 0.00 | 0.00 | 40 | 1014.8 |
| 20260906204219 | 91 | 182 | 16.0 | 26.0 | 0.00 | 0.00 | 0.00 | 41 | 1015.0 |
| 20260906203735 | 90 | 160 | 19.0 | 25.0 | 0.00 | 0.00 | 0.00 | 40 | 1015.0 |
| 20260906203251 | 90 | 155 | 14.0 | 26.0 | 0.00 | 0.00 | 0.00 | 41 | 1015.1 |
| 20260906202747 | 90 | 144 | 15.0 | 29.0 | 0.00 | 0.00 | 0.00 | 41 | 1015.1 |
| 20260906202223 | 90 | 146 | 20.0 | 29.0 | 0.00 | 0.00 | 0.00 | 41 | 1015.2 |
| 20260906201720 | 90 | 169 | 13.0 | 25.0 | 0.00 | 0.00 | 0.00 | 41 | 1015.2 |
| 20260906201217 | 91 | 151 | 18.0 | 24.0 | 0.00 | 0.00 | 0.00 | 41 | 1015.3 |
| 20260906200718 | 91 | 141 | 12.0 | 23.0 | 0.00 | 0.00 | 0.00 | 40 | 1015.2 |
| 20260906200215 | 91 | 136 | 13.0 | 28.0 | 0.00 | 0.00 | 0.00 | 41 | 1015.3 |
| 20260906195732 | 91 | 142 | 20.0 | 28.0 | 0.00 | 0.00 | 0.00 | 42 | 1015.2 |
| 20260906195228 | 90 | 131 | 11.0 | 27.0 | 0.00 | 0.00 | 0.00 | 43 | 1015.1 |
| 20260906194724 | 90 | 140 | 16.0 | 27.0 | 0.00 | 0.00 | 0.00 | 43 | 1015.2 |
| 20260906194221 | 91 | 167 | 19.0 | 27.0 | 0.00 | 0.00 | 0.00 | 41 | 1015.4 |
| 20260906193738 | 90 | 173 | 13.0 | 27.0 | 0.00 | 0.00 | 0.00 | 42 | 1015.3 |
| 20260906193214 | 90 | 120 | 19.0 | 25.0 | 0.00 | 0.00 | 0.00 | 44 | 1015.4 |
| 20260906192715 | 90 | 144 | 15.0 | 22.0 | 0.00 | 0.00 | 0.00 | 44 | 1015.4 |
| 20260906192212 | 90 | 137 | 18.0 | 25.0 | 0.00 | 0.00 | 0.00 | 44 | 1015.5 |
| 20260906191749 | 89 | 132 | 16.0 | 27.0 | 0.00 | 0.00 | 0.00 | 44 | 1015.6 |
| 20260906191225 | 89 | 135 | 17.0 | 27.0 | 0.00 | 0.00 | 0.00 | 42 | 1015.7 |
| 20260906190742 | 89 | 130 | 15.0 | 22.0 | 0.00 | 0.00 | 0.00 | 44 | 1015.8 |
| 20260906190238 | 89 | 132 | 15.0 | 25.0 | 0.00 | 0.00 | 0.00 | 45 | 1015.9 |
| 20260906185713 | 88 | 127 | 16.0 | 25.0 | 0.00 | 0.00 | 0.00 | 45 | 1015.9 |
| 20260906185230 | 88 | 154 | 13.0 | 22.0 | 0.00 | 0.00 | 0.00 | 46 | 1016.0 |
| 20260906184727 | 88 | 134 | 12.0 | 22.0 | 0.00 | 0.00 | 0.00 | 46 | 1016.2 |
| 20260906184223 | 88 | 148 | 14.0 | 20.0 | 0.00 | 0.00 | 0.00 | 46 | 1016.3 |
| 20260906183725 | 87 | 140 | 15.0 | 21.0 | 0.00 | 0.00 | 0.00 | 47 | 1016.4 |
| 20260906183220 | 87 | 155 | 12.0 | 20.0 | 0.00 | 0.00 | 0.00 | 46 | 1016.5 |
| 20260906182717 | 87 | 146 | 13.0 | 20.0 | 0.00 | 0.00 | 0.00 | 46 | 1016.5 |
| 20260906182215 | 87 | 128 | 13.0 | 21.0 | 0.00 | 0.00 | 0.00 | 47 | 1016.6 |
| 20260906181712 | 86 | 148 | 12.0 | 21.0 | 0.00 | 0.00 | 0.00 | 47 | 1016.7 |
| 20260906181226 | 86 | 186 | 8.0 | 19.0 | 0.00 | 0.00 | 0.00 | 47 | 1016.8 |
| 20260906180722 | 86 | 184 | 13.0 | 19.0 | 0.00 | 0.00 | 0.00 | 48 | 1016.9 |
| 20260906180223 | 85 | 138 | 11.0 | 18.0 | 0.00 | 0.00 | 0.00 | 49 | 1017.0 |
| 20260906175720 | 85 | 155 | 11.0 | 18.0 | 0.00 | 0.00 | 0.00 | 50 | 1017.2 |
| 20260906175216 | 85 | 164 | 12.0 | 17.0 | 0.00 | 0.00 | 0.00 | 50 | 1017.2 |
| 20260906174714 | 85 | 155 | 12.0 | 16.0 | 0.00 | 0.00 | 0.00 | 51 | 1017.3 |
| 20260906174210 | 85 | 202 | 10.0 | 20.0 | 0.00 | 0.00 | 0.00 | 50 | 1017.5 |
| 20260906173748 | 85 | 163 | 13.0 | 20.0 | 0.00 | 0.00 | 0.00 | 51 | 1017.5 |
| 20260906173224 | 84 | 155 | 5.0 | 16.0 | 0.00 | 0.00 | 0.00 | 52 | 1017.5 |
| 20260906172719 | 84 | 136 | 9.0 | 16.0 | 0.00 | 0.00 | 0.00 | 53 | 1017.5 |
| 20260906172221 | 83 | 128 | 10.0 | 17.0 | 0.00 | 0.00 | 0.00 | 54 | 1017.7 |
| 20260906171718 | 83 | 128 | 11.0 | 17.0 | 0.00 | 0.00 | 0.00 | 54 | 1017.7 |
| 20260906171215 | 82 | 157 | 11.0 | 17.0 | 0.00 | 0.00 | 0.00 | 55 | 1017.7 |
| 20260906170712 | 82 | 123 | 12.0 | 17.0 | 0.00 | 0.00 | 0.00 | 56 | 1017.7 |
| 20260906170249 | 82 | 161 | 11.0 | 16.0 | 0.00 | 0.00 | 0.00 | 56 | 1017.8 |
| 20260906165724 | 81 | 139 | 8.0 | 16.0 | 0.00 | 0.00 | 0.00 | 56 | 1017.8 |
| 20260906165241 | 81 | 148 | 8.0 | 16.0 | 0.00 | 0.00 | 0.00 | 57 | 1017.9 |
| 20260906164716 | 81 | 148 | 10.0 | 17.0 | 0.00 | 0.00 | 0.00 | 58 | 1017.9 |
| 20260906164234 | 81 | 137 | 13.0 | 17.0 | 0.00 | 0.00 | 0.00 | 59 | 1018.0 |
| 20260906163714 | 80 | 109 | 9.0 | 17.0 | 0.00 | 0.00 | 0.00 | 60 | 1018.0 |
| 20260906163231 | 79 | 148 | 10.0 | 16.0 | 0.00 | 0.00 | 0.00 | 61 | 1018.1 |
| 20260906162726 | 79 | 146 | 12.0 | 18.0 | 0.00 | 0.00 | 0.00 | 61 | 1018.2 |
| 20260906162224 | 78 | 135 | 12.0 | 18.0 | 0.00 | 0.00 | 0.00 | 64 | 1018.2 |
| 20260906161741 | 77 | 145 | 9.0 | 17.0 | 0.00 | 0.00 | 0.00 | 67 | 1018.3 |
| 20260906161236 | 77 | 119 | 10.0 | 16.0 | 0.00 | 0.00 | 0.00 | 68 | 1018.3 |
| 20260906160712 | 76 | 165 | 10.0 | 17.0 | 0.00 | 0.00 | 0.00 | 69 | 1018.2 |
| 20260906160229 | 76 | 134 | 13.0 | 18.0 | 0.00 | 0.00 | 0.00 | 69 | 1018.2 |
| 20260906155731 | 76 | 152 | 13.0 | 18.0 | 0.00 | 0.00 | 0.00 | 70 | 1018.1 |
| 20260906155227 | 75 | 130 | 12.0 | 18.0 | 0.00 | 0.00 | 0.00 | 72 | 1018.1 |
| 20260906154723 | 74 | 148 | 14.0 | 18.0 | 0.00 | 0.00 | 0.00 | 73 | 1018.0 |
| 20260906154220 | 74 | 130 | 11.0 | 17.0 | 0.00 | 0.00 | 0.00 | 75 | 1018.0 |
| 20260906153718 | 73 | 145 | 12.0 | 18.0 | 0.00 | 0.00 | 0.00 | 77 | 1018.0 |
| 20260906153215 | 72 | 129 | 14.0 | 18.0 | 0.00 | 0.00 | 0.00 | 78 | 1017.9 |
| 20260906152731 | 72 | 130 | 14.0 | 17.0 | 0.00 | 0.00 | 0.00 | 81 | 1017.9 |
| 20260906152211 | 70 | 142 | 13.0 | 17.0 | 0.00 | 0.00 | 0.00 | 83 | 1018.0 |
| 20260906151728 | 69 | 152 | 13.0 | 17.0 | 0.00 | 0.00 | 0.00 | 86 | 1018.0 |
| 20260906151245 | 68 | 150 | 12.0 | 15.0 | 0.00 | 0.00 | 0.00 | 89 | 1017.9 |
| 20260906150720 | 68 | 134 | 8.0 | 14.0 | 0.00 | 0.00 | 0.00 | 90 | 1018.0 |
| 20260906150238 | 67 | 127 | 8.0 | 14.0 | 0.00 | 0.00 | 0.00 | 92 | 1018.0 |
| 20260906145734 | 66 | 118 | 10.0 | 13.0 | 0.00 | 0.00 | 0.00 | 92 | 1018.0 |
| 20260906145230 | 66 | 136 | 8.0 | 11.0 | 0.00 | 0.00 | 0.00 | 92 | 1017.9 |
| 20260906144726 | 65 | 360 | 9.0 | 14.0 | 0.00 | 0.00 | 0.00 | 93 | 1018.0 |
| 20260906144223 | 65 | 360 | 9.0 | 14.0 | 0.00 | 0.00 | 0.00 | 93 | 1017.9 |
| 20260906143740 | 65 | 360 | 10.0 | 13.0 | 0.00 | 0.00 | 0.00 | 93 | 1017.8 |
| 20260906143220 | 64 | 360 | 11.0 | 13.0 | 0.00 | 0.00 | 0.00 | 93 | 1017.9 |
| 20260906142715 | 64 | 360 | 9.0 | 13.0 | 0.00 | 0.00 | 0.00 | 93 | 1017.8 |
| 20260906142212 | 64 | 360 | 10.0 | 13.0 | 0.00 | 0.00 | 0.00 | 93 | 1017.9 |
| 20260906141750 | 64 | 360 | 9.0 | 11.0 | 0.00 | 0.00 | 0.00 | 93 | 1017.9 |
| 20260906141225 | 64 | 360 | 7.0 | 10.0 | 0.00 | 0.00 | 0.00 | 93 | 1018.0 |
| 20260906140722 | 63 | 360 | 7.0 | 10.0 | 0.00 | 0.00 | 0.00 | 93 | 1018.0 |
| 20260906140219 | 64 | 360 | 8.0 | 10.0 | 0.00 | 0.00 | 0.00 | 93 | 1017.9 |
| 20260906135721 | 64 | 360 | 7.0 | 11.0 | 0.00 | 0.00 | 0.00 | 93 | 1017.8 |
| 20260906135218 | 64 | 360 | 6.0 | 11.0 | 0.00 | 0.00 | 0.00 | 93 | 1017.8 |
| 20260906134715 | 63 | 360 | 7.0 | 11.0 | 0.00 | 0.00 | 0.00 | 93 | 1017.7 |
| 20260906134251 | 63 | 360 | 8.0 | 11.0 | 0.00 | 0.00 | 0.00 | 93 | 1017.7 |
| 20260906133727 | 63 | 360 | 9.0 | 12.0 | 0.00 | 0.00 | 0.00 | 93 | 1017.7 |
| 20260906133223 | 63 | 360 | 8.0 | 12.0 | 0.00 | 0.00 | 0.00 | 93 | 1017.7 |
| 20260906132719 | 63 | 360 | 10.0 | 12.0 | 0.00 | 0.00 | 0.00 | 93 | 1017.6 |
| 20260906132216 | 63 | 360 | 10.0 | 12.0 | 0.00 | 0.00 | 0.00 | 93 | 1017.6 |
| 20260906131717 | 63 | 360 | 7.0 | 10.0 | 0.00 | 0.00 | 0.00 | 93 | 1017.5 |
| 20260906131214 | 63 | 360 | 8.0 | 11.0 | 0.00 | 0.00 | 0.00 | 93 | 1017.4 |
| 20260906130731 | 63 | 360 | 7.0 | 11.0 | 0.00 | 0.00 | 0.00 | 93 | 1017.2 |
| 20260906130227 | 62 | 360 | 8.0 | 10.0 | 0.00 | 0.00 | 0.00 | 93 | 1017.3 |
| 20260906125723 | 62 | 360 | 8.0 | 11.0 | 0.00 | 0.00 | 0.00 | 93 | 1017.2 |
| 20260906125220 | 62 | 360 | 9.0 | 11.0 | 0.00 | 0.00 | 0.00 | 93 | 1017.2 |
| 20260906124717 | 62 | 360 | 8.0 | 11.0 | 0.00 | 0.00 | 0.00 | 92 | 1017.1 |
| 20260906124218 | 62 | 360 | 9.0 | 11.0 | 0.00 | 0.00 | 0.00 | 92 | 1017.0 |
| 20260906123715 | 62 | 360 | 9.0 | 11.0 | 0.00 | 0.00 | 0.00 | 92 | 1017.0 |
| 20260906123211 | 62 | 360 | 10.0 | 11.0 | 0.00 | 0.00 | 0.00 | 92 | 1017.0 |
| 20260906122729 | 62 | 360 | 8.0 | 12.0 | 0.00 | 0.00 | 0.00 | 92 | 1017.0 |
| 20260906122245 | 61 | 360 | 9.0 | 11.0 | 0.00 | 0.00 | 0.00 | 92 | 1016.9 |
| 20260906121721 | 61 | 360 | 7.0 | 10.0 | 0.00 | 0.00 | 0.00 | 92 | 1016.9 |
| 20260906121238 | 61 | 360 | 6.0 | 9.0 | 0.00 | 0.00 | 0.00 | 92 | 1016.8 |
| 20260906120734 | 61 | 360 | 5.0 | 8.0 | 0.00 | 0.00 | 0.00 | 91 | 1016.7 |
| 20260906120212 | 61 | 360 | 5.0 | 6.0 | 0.00 | 0.00 | 0.00 | 91 | 1016.7 |
| 20260906115709 | 61 | 360 | 5.0 | 5.0 | 0.00 | 0.00 | 0.00 | 91 | 1016.6 |
| 20260906115227 | 61 | 360 | 3.0 | 5.0 | 0.00 | 0.00 | 0.00 | 91 | 1016.8 |
| 20260906114723 | 61 | 360 | 3.0 | 5.0 | 0.00 | 0.00 | 0.00 | 91 | 1016.7 |
| 20260906114221 | 61 | 360 | 4.0 | 5.0 | 0.00 | 0.00 | 0.00 | 91 | 1016.7 |
| 20260906113718 | 61 | 360 | 3.0 | 4.0 | 0.00 | 0.00 | 0.00 | 91 | 1016.5 |
| 20260906113215 | 62 | 360 | 3.0 | 4.0 | 0.00 | 0.00 | 0.00 | 91 | 1016.6 |
| 20260906112711 | 62 | 360 | 4.0 | 5.0 | 0.00 | 0.00 | 0.00 | 91 | 1016.7 |
| 20260906112210 | 62 | 360 | 3.0 | 8.0 | 0.00 | 0.00 | 0.00 | 91 | 1016.6 |
| 20260906111728 | 62 | 360 | 5.0 | 8.0 | 0.00 | 0.00 | 0.00 | 91 | 1016.5 |
| 20260906111223 | 62 | 360 | 4.0 | 10.0 | 0.00 | 0.00 | 0.00 | 91 | 1016.6 |
| 20260906110719 | 62 | 360 | 6.0 | 10.0 | 0.00 | 0.00 | 0.00 | 91 | 1016.5 |
| 20260906110216 | 62 | 360 | 8.0 | 10.0 | 0.00 | 0.00 | 0.00 | 91 | 1016.4 |
| 20260906105713 | 62 | 360 | 6.0 | 10.0 | 0.00 | 0.00 | 0.00 | 91 | 1016.4 |
| 20260906105209 | 62 | 360 | 8.0 | 10.0 | 0.00 | 0.00 | 0.00 | 91 | 1016.5 |
| 20260906104747 | 62 | 360 | 7.0 | 10.0 | 0.00 | 0.00 | 0.00 | 90 | 1016.7 |
| 20260906104223 | 62 | 360 | 8.0 | 9.0 | 0.00 | 0.00 | 0.00 | 90 | 1016.6 |
| 20260906103722 | 62 | 360 | 7.0 | 9.0 | 0.00 | 0.00 | 0.00 | 90 | 1016.5 |
| 20260906103218 | 62 | 360 | 6.0 | 10.0 | 0.00 | 0.00 | 0.00 | 90 | 1016.6 |
| 20260906102735 | 63 | 360 | 7.0 | 9.0 | 0.00 | 0.00 | 0.00 | 90 | 1016.8 |
| 20260906102212 | 63 | 360 | 6.0 | 10.0 | 0.00 | 0.00 | 0.00 | 89 | 1016.8 |
| 20260906101750 | 63 | 360 | 6.0 | 11.0 | 0.00 | 0.00 | 0.00 | 89 | 1016.9 |
| 20260906101225 | 63 | 360 | 9.0 | 11.0 | 0.00 | 0.00 | 0.00 | 89 | 1017.0 |
| 20260906100722 | 63 | 360 | 10.0 | 11.0 | 0.00 | 0.00 | 0.00 | 89 | 1016.9 |
| 20260906100219 | 63 | 360 | 8.0 | 9.0 | 0.00 | 0.00 | 0.00 | 89 | 1017.0 |
| 20260906095716 | 63 | 360 | 8.0 | 10.0 | 0.00 | 0.00 | 0.00 | 88 | 1017.0 |
| 20260906095237 | 63 | 360 | 7.0 | 10.0 | 0.00 | 0.00 | 0.00 | 88 | 1017.3 |
| 20260906094713 | 64 | 360 | 8.0 | 11.0 | 0.00 | 0.00 | 0.00 | 88 | 1017.3 |
| 20260906094209 | 64 | 360 | 8.0 | 11.0 | 0.00 | 0.00 | 0.00 | 88 | 1017.2 |
| 20260906093726 | 64 | 360 | 9.0 | 11.0 | 0.00 | 0.00 | 0.00 | 88 | 1017.2 |
| 20260906093222 | 64 | 360 | 9.0 | 10.0 | 0.00 | 0.00 | 0.00 | 88 | 1017.3 |
| 20260906092738 | 65 | 360 | 8.0 | 13.0 | 0.00 | 0.00 | 0.00 | 87 | 1017.4 |
| 20260906092214 | 65 | 360 | 10.0 | 13.0 | 0.00 | 0.00 | 0.00 | 87 | 1017.2 |
| 20260906091712 | 65 | 360 | 9.0 | 13.0 | 0.00 | 0.00 | 0.00 | 87 | 1017.2 |
| 20260906091212 | 65 | 360 | 10.0 | 14.0 | 0.00 | 0.00 | 0.00 | 86 | 1017.2 |
| 20260906090728 | 65 | 360 | 11.0 | 14.0 | 0.00 | 0.00 | 0.00 | 86 | 1017.2 |
| 20260906090224 | 66 | 360 | 10.0 | 15.0 | 0.00 | 0.00 | 0.00 | 85 | 1017.1 |
| 20260906085722 | 66 | 360 | 12.0 | 15.0 | 0.00 | 0.00 | 0.00 | 84 | 1017.3 |
| 20260906085218 | 67 | 360 | 11.0 | 15.0 | 0.00 | 0.00 | 0.00 | 83 | 1017.4 |
| 20260906084715 | 67 | 360 | 12.0 | 17.0 | 0.00 | 0.00 | 0.00 | 82 | 1017.3 |
| 20260906084212 | 68 | 360 | 15.0 | 17.0 | 0.00 | 0.00 | 0.00 | 81 | 1017.5 |
| 20260906083710 | 69 | 360 | 10.0 | 12.0 | 0.00 | 0.00 | 0.00 | 79 | 1017.4 |
| 20260906083211 | 69 | 360 | 9.0 | 14.0 | 0.00 | 0.00 | 0.00 | 77 | 1017.3 |
| 20260906082727 | 70 | 360 | 11.0 | 17.0 | 0.00 | 0.00 | 0.00 | 75 | 1017.2 |
| 20260906082225 | 71 | 360 | 13.0 | 20.0 | 0.00 | 0.00 | 0.00 | 72 | 1017.3 |
| 20260906081722 | 73 | 34 | 16.0 | 20.0 | 0.00 | 0.00 | 0.00 | 69 | 1017.3 |
| 20260906081219 | 73 | 52 | 6.0 | 9.0 | 0.00 | 0.00 | 0.00 | 68 | 1017.2 |
| 20260906080735 | 74 | 62 | 5.0 | 8.0 | 0.00 | 0.00 | 0.00 | 67 | 1017.2 |
| 20260906080211 | 73 | 61 | 4.0 | 11.0 | 0.00 | 0.00 | 0.00 | 66 | 1017.4 |
| 20260906075712 | 73 | 26 | 6.0 | 21.0 | 0.00 | 0.00 | 0.00 | 66 | 1017.5 |
| 20260906075229 | 73 | 31 | 13.0 | 21.0 | 0.00 | 0.00 | 0.00 | 67 | 1017.4 |
| 20260906074745 | 71 | 360 | 4.0 | 15.0 | 0.00 | 0.00 | 0.00 | 70 | 1017.0 |
| 20260906074220 | 70 | 360 | 5.0 | 12.0 | 0.00 | 0.00 | 0.00 | 74 | 1016.7 |
| 20260906073738 | 70 | 183 | 7.0 | 12.0 | 0.00 | 0.00 | 0.00 | 76 | 1016.5 |
| 20260906073213 | 70 | 23 | 7.0 | 11.0 | 0.00 | 0.00 | 0.00 | 75 | 1016.2 |
| 20260906072709 | 70 | 15 | 2.0 | 4.0 | 0.00 | 0.00 | 0.00 | 75 | 1015.9 |
| 20260906072246 | 70 | 200 | 2.0 | 5.0 | 0.00 | 0.00 | 0.00 | 75 | 1015.5 |
| 20260906071722 | 71 | 230 | 0.0 | 4.0 | 0.00 | 0.00 | 0.00 | 75 | 1015.5 |
| 20260906071224 | 71 | 360 | 2.0 | 4.0 | 0.00 | 0.00 | 0.00 | 75 | 1015.5 |
| 20260906070720 | 71 | 360 | 2.0 | 6.0 | 0.00 | 0.00 | 0.00 | 75 | 1015.6 |
| 20260906070216 | 71 | 360 | 2.0 | 6.0 | 0.00 | 0.00 | 0.00 | 75 | 1015.8 |
| 20260906065713 | 71 | 360 | 3.0 | 8.0 | 0.00 | 0.00 | 0.00 | 75 | 1015.9 |
| 20260906065210 | 71 | 360 | 3.0 | 8.0 | 0.00 | 0.00 | 0.00 | 75 | 1015.9 |
| 20260906064726 | 71 | 360 | 4.0 | 8.0 | 0.00 | 0.00 | 0.00 | 75 | 1015.9 |
| 20260906064222 | 71 | 360 | 3.0 | 8.0 | 0.00 | 0.00 | 0.00 | 75 | 1015.9 |
| 20260906063740 | 71 | 229 | 2.0 | 7.0 | 0.00 | 0.00 | 0.00 | 75 | 1015.9 |
| 20260906063236 | 71 | 219 | 4.0 | 8.0 | 0.00 | 0.00 | 0.00 | 74 | 1016.0 |
| 20260906062715 | 71 | 220 | 2.0 | 6.0 | 0.00 | 0.00 | 0.00 | 74 | 1016.0 |
| 20260906062211 | 71 | 218 | 2.0 | 4.0 | 0.00 | 0.00 | 0.00 | 74 | 1016.0 |
| 20260906061729 | 72 | 185 | 1.0 | 4.0 | 0.00 | 0.00 | 0.00 | 74 | 1016.0 |
| 20260906061225 | 72 | 173 | 1.0 | 4.0 | 0.00 | 0.00 | 0.00 | 73 | 1016.0 |
| 20260906060722 | 72 | 195 | 2.0 | 5.0 | 0.00 | 0.00 | 0.00 | 73 | 1016.0 |
| 20260906060219 | 72 | 360 | 1.0 | 6.0 | 0.00 | 0.00 | 0.00 | 73 | 1016.0 |
| 20260906055716 | 72 | 360 | 2.0 | 9.0 | 0.00 | 0.00 | 0.00 | 73 | 1015.9 |
| 20260906055233 | 72 | 360 | 5.0 | 9.0 | 0.00 | 0.00 | 0.00 | 72 | 1015.9 |
| 20260906054712 | 72 | 360 | 3.0 | 9.0 | 0.00 | 0.00 | 0.00 | 72 | 1015.9 |
| 20260906054209 | 73 | 168 | 3.0 | 9.0 | 0.00 | 0.00 | 0.00 | 71 | 1015.8 |
| 20260906053746 | 73 | 360 | 2.0 | 5.0 | 0.00 | 0.00 | 0.00 | 70 | 1015.8 |
| 20260906053221 | 73 | 360 | 1.0 | 5.0 | 0.00 | 0.00 | 0.00 | 69 | 1015.9 |
| 20260906052717 | 74 | 360 | 1.0 | 5.0 | 0.00 | 0.00 | 0.00 | 68 | 1015.8 |
| 20260906052214 | 74 | 360 | 2.0 | 4.0 | 0.00 | 0.00 | 0.00 | 68 | 1015.7 |
| 20260906051711 | 74 | 39 | 0.0 | 2.0 | 0.00 | 0.00 | 0.00 | 68 | 1015.6 |
| 20260906051249 | 74 | 221 | 0.0 | 4.0 | 0.00 | 0.00 | 0.00 | 68 | 1015.7 |
| 20260906050729 | 75 | 152 | 1.0 | 8.0 | 0.00 | 0.00 | 0.00 | 67 | 1015.7 |
| 20260906050224 | 75 | 198 | 4.0 | 8.0 | 0.00 | 0.00 | 0.00 | 67 | 1015.7 |
| 20260906045720 | 75 | 148 | 8.0 | 10.0 | 0.00 | 0.00 | 0.00 | 67 | 1015.6 |
| 20260906045217 | 75 | 148 | 3.0 | 8.0 | 0.00 | 0.00 | 0.00 | 66 | 1015.6 |
| 20260906044714 | 75 | 154 | 6.0 | 9.0 | 0.00 | 0.00 | 0.00 | 66 | 1015.5 |
| 20260906044211 | 75 | 133 | 6.0 | 9.0 | 0.00 | 0.00 | 0.00 | 66 | 1015.6 |
| 20260906043727 | 76 | 148 | 6.0 | 10.0 | 0.00 | 0.00 | 0.00 | 66 | 1015.6 |
| 20260906043224 | 76 | 148 | 6.0 | 15.0 | 0.00 | 0.00 | 0.00 | 66 | 1015.7 |
| 20260906042724 | 75 | 177 | 10.0 | 15.0 | 0.00 | 0.00 | 0.00 | 66 | 1015.6 |
| 20260906042222 | 75 | 138 | 9.0 | 12.0 | 0.00 | 0.00 | 0.00 | 66 | 1015.6 |
| 20260906041718 | 75 | 144 | 10.0 | 12.0 | 0.00 | 0.00 | 0.00 | 66 | 1015.7 |
| 20260906041214 | 75 | 143 | 10.0 | 12.0 | 0.00 | 0.00 | 0.00 | 66 | 1015.7 |
| 20260906040731 | 75 | 144 | 10.0 | 11.0 | 0.00 | 0.00 | 0.00 | 66 | 1015.6 |
| 20260906040227 | 76 | 141 | 9.0 | 11.0 | 0.00 | 0.00 | 0.00 | 65 | 1015.8 |
| 20260906035722 | 76 | 136 | 9.0 | 10.0 | 0.00 | 0.00 | 0.00 | 64 | 1015.8 |
| 20260906035220 | 76 | 132 | 8.0 | 10.0 | 0.00 | 0.00 | 0.00 | 64 | 1015.7 |
| 20260906034741 | 77 | 360 | 8.0 | 11.0 | 0.00 | 0.00 | 0.00 | 63 | 1015.7 |
| 20260906034217 | 77 | 130 | 9.0 | 11.0 | 0.00 | 0.00 | 0.00 | 62 | 1015.7 |
| 20260906033713 | 77 | 360 | 8.0 | 10.0 | 0.00 | 0.00 | 0.00 | 62 | 1015.5 |
| 20260906033210 | 77 | 143 | 8.0 | 11.0 | 0.00 | 0.00 | 0.00 | 62 | 1015.5 |
| 20260906032727 | 78 | 160 | 9.0 | 11.0 | 0.00 | 0.00 | 0.00 | 62 | 1015.4 |
| 20260906032224 | 78 | 166 | 9.0 | 11.0 | 0.00 | 0.00 | 0.00 | 61 | 1015.4 |
| 20260906031721 | 78 | 145 | 10.0 | 11.0 | 0.00 | 0.00 | 0.00 | 61 | 1015.4 |
| 20260906031239 | 79 | 150 | 9.0 | 12.0 | 0.00 | 0.00 | 0.00 | 60 | 1015.4 |
| 20260906030717 | 79 | 151 | 10.0 | 14.0 | 0.00 | 0.00 | 0.00 | 60 | 1015.4 |
| 20260906030215 | 79 | 155 | 9.0 | 12.0 | 0.00 | 0.00 | 0.00 | 59 | 1015.4 |
| 20260906025711 | 80 | 158 | 8.0 | 10.0 | 0.00 | 0.00 | 0.00 | 59 | 1015.3 |
| 20260906025249 | 80 | 142 | 8.0 | 10.0 | 0.00 | 0.00 | 0.00 | 58 | 1015.3 |
| 20260906024724 | 80 | 138 | 9.0 | 12.0 | 0.00 | 0.00 | 0.00 | 58 | 1015.3 |
| 20260906024220 | 81 | 148 | 10.0 | 14.0 | 0.00 | 0.00 | 0.00 | 57 | 1015.2 |
| 20260906023717 | 81 | 142 | 11.0 | 16.0 | 0.00 | 0.00 | 0.00 | 57 | 1015.2 |
| 20260906023235 | 81 | 154 | 13.0 | 17.0 | 0.00 | 0.00 | 0.00 | 57 | 1015.1 |
| 20260906022730 | 82 | 146 | 14.0 | 19.0 | 0.00 | 0.00 | 0.00 | 57 | 1015.1 |
| 20260906022210 | 82 | 149 | 14.0 | 17.0 | 0.00 | 0.00 | 0.00 | 57 | 1015.0 |
| 20260906021728 | 82 | 159 | 14.0 | 17.0 | 0.00 | 0.00 | 0.00 | 57 | 1015.1 |
| 20260906021225 | 82 | 165 | 14.0 | 18.0 | 0.00 | 0.00 | 0.00 | 57 | 1015.1 |
| 20260906020721 | 82 | 158 | 11.0 | 16.0 | 0.00 | 0.00 | 0.00 | 57 | 1015.0 |
| 20260906020218 | 82 | 167 | 9.0 | 15.0 | 0.00 | 0.00 | 0.00 | 57 | 1015.0 |
| 20260906015715 | 82 | 158 | 11.0 | 15.0 | 0.00 | 0.00 | 0.00 | 57 | 1015.0 |
| 20260906015212 | 81 | 164 | 10.0 | 12.0 | 0.00 | 0.00 | 0.00 | 56 | 1014.9 |
| 20260906014713 | 81 | 180 | 6.0 | 11.0 | 0.00 | 0.00 | 0.00 | 55 | 1014.9 |
| 20260906014210 | 81 | 146 | 9.0 | 10.0 | 0.00 | 0.00 | 0.00 | 54 | 1014.9 |
| 20260906013728 | 81 | 160 | 9.0 | 11.0 | 0.00 | 0.00 | 0.00 | 53 | 1014.8 |
| 20260906013224 | 82 | 360 | 7.0 | 11.0 | 0.00 | 0.00 | 0.00 | 50 | 1014.7 |
| 20260906012720 | 83 | 360 | 5.0 | 8.0 | 0.00 | 0.00 | 0.00 | 48 | 1014.7 |
| 20260906012218 | 84 | 360 | 3.0 | 4.0 | 0.00 | 0.00 | 0.00 | 47 | 1014.6 |
| 20260906011714 | 84 | 360 | 1.0 | 2.0 | 0.00 | 0.00 | 0.00 | 46 | 1014.6 |
| 20260906011214 | 85 | 12 | 0.0 | 4.0 | 0.00 | 0.00 | 0.00 | 46 | 1014.5 |
| 20260906010711 | 85 | 188 | 1.0 | 4.0 | 0.00 | 0.00 | 0.00 | 45 | 1014.4 |
| 20260906010228 | 85 | 360 | 1.0 | 4.0 | 0.00 | 0.00 | 0.00 | 45 | 1014.3 |
| 20260906005724 | 85 | 194 | 2.0 | 7.0 | 0.00 | 0.00 | 0.00 | 44 | 1014.2 |
| 20260906005220 | 85 | 194 | 4.0 | 7.0 | 0.00 | 0.00 | 0.00 | 44 | 1014.2 |
| 20260906004717 | 85 | 360 | 2.0 | 9.0 | 0.00 | 0.00 | 0.00 | 45 | 1014.1 |
| 20260906004214 | 85 | 360 | 3.0 | 10.0 | 0.00 | 0.00 | 0.00 | 45 | 1014.0 |
| 20260906003715 | 85 | 360 | 5.0 | 11.0 | 0.00 | 0.00 | 0.00 | 45 | 1014.0 |
| 20260906003212 | 86 | 360 | 6.0 | 11.0 | 0.00 | 0.00 | 0.00 | 45 | 1013.9 |
| 20260906002749 | 86 | 360 | 5.0 | 11.0 | 0.00 | 0.00 | 0.00 | 44 | 1013.7 |
| 20260906002224 | 86 | 360 | 7.0 | 11.0 | 0.00 | 0.00 | 0.00 | 44 | 1013.8 |
| 20260906001741 | 87 | 360 | 5.0 | 11.0 | 0.00 | 0.00 | 0.00 | 44 | 1013.7 |
| 20260906001238 | 87 | 192 | 7.0 | 11.0 | 0.00 | 0.00 | 0.00 | 42 | 1013.7 |
| 20260906000713 | 88 | 360 | 4.0 | 9.0 | 0.00 | 0.00 | 0.00 | 41 | 1013.7 |
| 20260906000212 | 87 | 360 | 3.0 | 8.0 | 0.00 | 0.00 | 0.00 | 40 | 1013.7 |
| 20260905235711 | 87 | 150 | 2.0 | 8.0 | 0.00 | 0.00 | 0.00 | 39 | 1013.7 |
| 20260905235228 | 87 | 201 | 2.0 | 8.0 | 0.00 | 0.00 | 0.00 | 38 | 1013.8 |
| 20260905234725 | 87 | 360 | 4.0 | 8.0 | 0.00 | 0.00 | 0.00 | 38 | 1013.6 |
| 20260905234222 | 88 | 360 | 5.0 | 10.0 | 0.00 | 0.00 | 0.00 | 37 | 1013.5 |
| 20260905233740 | 88 | 360 | 8.0 | 10.0 | 0.00 | 0.00 | 0.00 | 37 | 1013.6 |
| 20260905233214 | 88 | 360 | 7.0 | 12.0 | 0.00 | 0.00 | 0.00 | 36 | 1013.6 |
| 20260905232711 | 89 | 360 | 10.0 | 12.0 | 0.00 | 0.00 | 0.00 | 34 | 1013.5 |
| 20260905232228 | 89 | 360 | 10.0 | 14.0 | 0.00 | 0.00 | 0.00 | 34 | 1013.5 |
| 20260905231745 | 89 | 150 | 7.0 | 10.0 | 0.00 | 0.00 | 0.00 | 35 | 1013.5 |
| 20260905231245 | 89 | 215 | 3.0 | 10.0 | 0.00 | 0.00 | 0.00 | 38 | 1013.6 |
| 20260905230721 | 89 | 229 | 3.0 | 8.0 | 0.00 | 0.00 | 0.00 | 38 | 1013.6 |
| 20260905230218 | 89 | 181 | 2.0 | 6.0 | 0.00 | 0.00 | 0.00 | 41 | 1013.4 |
| 20260905225715 | 89 | 215 | 3.0 | 9.0 | 0.00 | 0.00 | 0.00 | 39 | 1013.5 |
| 20260905225212 | 88 | 234 | 6.0 | 11.0 | 0.00 | 0.00 | 0.00 | 38 | 1013.5 |
| 20260905224729 | 88 | 360 | 8.0 | 12.0 | 0.00 | 0.00 | 0.00 | 39 | 1013.7 |
| 20260905224226 | 87 | 360 | 5.0 | 10.0 | 0.00 | 0.00 | 0.00 | 40 | 1013.7 |
| 20260905223728 | 86 | 360 | 4.0 | 9.0 | 0.00 | 0.00 | 0.00 | 41 | 1013.9 |
| 20260905223224 | 86 | 360 | 5.0 | 10.0 | 0.00 | 0.00 | 0.00 | 41 | 1013.9 |
| 20260905222740 | 86 | 360 | 6.0 | 10.0 | 0.00 | 0.00 | 0.00 | 41 | 1013.8 |
| 20260905222216 | 86 | 360 | 4.0 | 7.0 | 0.00 | 0.00 | 0.00 | 41 | 1013.7 |
| 20260905221713 | 86 | 360 | 2.0 | 8.0 | 0.00 | 0.00 | 0.00 | 41 | 1013.7 |
| 20260905221250 | 87 | 360 | 5.0 | 10.0 | 0.00 | 0.00 | 0.00 | 41 | 1013.7 |
| 20260905220726 | 88 | 360 | 5.0 | 11.0 | 0.00 | 0.00 | 0.00 | 40 | 1013.7 |
| 20260905220223 | 89 | 360 | 6.0 | 10.0 | 0.00 | 0.00 | 0.00 | 38 | 1013.7 |
| 20260905215719 | 90 | 225 | 3.0 | 14.0 | 0.00 | 0.00 | 0.00 | 35 | 1013.6 |
| 20260905215220 | 90 | 360 | 9.0 | 14.0 | 0.00 | 0.00 | 0.00 | 33 | 1013.5 |
| 20260905214717 | 90 | 360 | 10.0 | 13.0 | 0.00 | 0.00 | 0.00 | 33 | 1013.4 |
| 20260905214214 | 89 | 159 | 9.0 | 12.0 | 0.00 | 0.00 | 0.00 | 33 | 1013.4 |
| 20260905213711 | 90 | 360 | 9.0 | 12.0 | 0.00 | 0.00 | 0.00 | 32 | 1013.5 |
| 20260905213228 | 90 | 360 | 8.0 | 12.0 | 0.00 | 0.00 | 0.00 | 31 | 1013.6 |
| 20260905212724 | 90 | 162 | 10.0 | 13.0 | 0.00 | 0.00 | 0.00 | 31 | 1013.9 |
| 20260905212220 | 90 | 360 | 11.0 | 15.0 | 0.00 | 0.00 | 0.00 | 30 | 1013.9 |
| 20260905211720 | 90 | 144 | 12.0 | 16.0 | 0.00 | 0.00 | 0.00 | 30 | 1014.0 |
| 20260905211217 | 90 | 360 | 12.0 | 18.0 | 0.00 | 0.00 | 0.00 | 30 | 1014.1 |
| 20260905210714 | 90 | 360 | 14.0 | 18.0 | 0.00 | 0.00 | 0.00 | 30 | 1014.2 |
| 20260905210211 | 91 | 360 | 13.0 | 18.0 | 0.00 | 0.00 | 0.00 | 30 | 1014.2 |